RH
54 57 65 72 80 86 83 80 81 75 63 62 68 68 62 53 45 45 46 45 42 42 46 47 47 48 41 33 29 28 30 29 26 22 15 10 9 8 9 11 11 12 15 15 17 19 20 19 18 17 20 22 22 22 21 21 22 22 20 21 30 40 41 37 35 35 35 35 33 32 30 32 35 41
47 45 42 45 65 75 66 61 57 45 30 33 52 60 56 53 48 43 43 45 46 47 48 46 46 46 37 28 26 28 31 29 24 19 13 9 10 10 11 12 11 13 16 17 17 19 20 20 18 18 20 22 22 22 21 21 23 22 21 28 38 43 43 41 40 39 39 39 38 36 34 34 34 37
42 38 32 32 46 46 38 38 32 22 13 15 31 44 47 51 52 49 45 41 45 52 54 50 47 43 35 29 27 30 32 27 20 15 12 10 11 12 13 11 11 15 17 16 17 20 21 20 18 18 20 22 21 20 22 23 23 23 26 35 42 44 44 43 42 41 42 41 41 41 39 37 36 36
35 30 26 26 30 26 27 29 18 12 13 11 17 29 38 44 43 43 46 41 46 58 59 55 52 42 33 33 33 38 42 29 14 11 12 13 12 14 19 23 23 22 18 16 17 20 21 18 17 18 19 20 19 21 25 26 24 27 33 39 42 44 45 44 43 43 42 42 42 43 43 41 40 37
29 23 20 20 20 20 25 23 12 10 8 3 7 11 21 37 31 23 36 42 46 59 57 48 48 38 30 37 38 40 48 38 20 21 24 17 12 17 30 43 45 36 23 16 18 21 20 18 17 18 18 18 20 26 29 28 28 32 37 41 42 43 44 44 44 44 43 43 43 44 46 45 44 40
25 17 15 13 12 14 17 14 11 11 3 4 14 10 11 32 29 13 28 42 44 57 55 37 39 38 28 38 46 40 43 40 28 30 35 28 25 33 41 46 51 44 26 16 19 20 18 17 18 18 17 18 26 33 33 31 33 36 38 41 43 43 44 44 44 44 44 44 44 45 46 47 47 44
19 12 10 8 6 9 9 7 8 7 2 8 19 14 8 18 19 7 15 30 40 57 53 31 37 48 33 32 47 42 30 25 19 22 31 32 36 47 49 45 49 45 27 18 20 19 18 20 20 18 18 23 31 34 35 37 39 40 41 42 43 44 44 44 45 45 45 45 45 46 47 48 50 47
13 8 7 4 4 6 5 3 3 3 3 4 7 7 5 7 9 3 4 20 40 53 50 34 39 54 47 34 41 40 25 17 15 20 33 38 40 46 48 47 48 39 23 18 19 19 21 24 21 19 22 28 33 34 36 41 42 42 43 43 45 46 45 44 45 46 47 46 46 47 48 49 50 50
10 6 4 3 3 4 3 3 3 2 3 4 3 5 12 15 10 3 4 19 30 30 38 46 45 49 51 37 26 23 21 26 32 40 50 52 53 55 51 47 47 41 30 23 20 21 25 26 23 23 26 30 33 36 39 42 42 43 44 44 45 46 45 45 46 47 47 47 46 47 49 50 50 51
9 5 3 3 3 3 3 3 3 3 2 4 5 5 17 26 15 3 6 14 18 21 38 55 52 43 39 30 22 16 15 23 33 42 50 52 56 63 60 51 47 49 47 34 22 25 30 29 25 24 28 36 40 40 40 41 42 43 42 40 41 43 45 46 47 48 47 46 47 46 48 50 50 52
10 7 3 3 3 2 3 3 3 4 3 4 6 4 11 19 10 4 10 14 22 36 46 49 49 45 32 22 28 29 16 13 23 38 47 48 49 54 57 56 52 51 52 46 36 35 36 33 32 34 41 51 53 48 48 50 46 42 38 36 36 39 45 48 48 48 47 45 46 46 48 51 51 53
12 8 3 3 3 2 3 3 2 4 3 3 6 4 4 7 5 10 24 30 34 42 45 41 43 46 34 22 27 29 21 27 47 58 52 44 47 52 53 59 60 51 48 51 50 50 51 48 48 50 52 55 55 53 59 61 50 39 37 36 34 35 41 48 49 48 47 45 45 46 49 51 51 54
13 9 4 2 3 3 3 3 3 4 4 5 9 7 5 8 11 18 34 43 42 41 42 40 39 40 38 36 37 38 41 50 56 53 46 46 56 59 53 55 61 55 47 50 54 55 56 56 54 54 52 52 55 56 58 55 43 36 37 35 32 33 37 45 49 48 47 45 44 46 49 51 52 55
15 10 5 3 3 3 3 3 3 3 3 4 8 8 9 16 20 28 43 47 41 40 39 37 37 36 35 40 41 42 52 56 46 40 49 56 59 58 53 52 61 64 52 47 54 56 55 54 53 51 50 50 53 55 53 45 35 32 36 35 33 33 34 42 48 48 47 45 42 45 50 51 52 55
17 10 6 4 3 3 3 3 3 4 4 3 5 7 14 20 20 26 41 47 43 39 34 33 38 36 35 42 43 42 51 55 50 52 61 62 57 57 56 51 56 64 56 48 54 57 55 57 55 49 49 50 50 53 54 48 37 32 35 36 36 34 34 40 46 48 46 43 41 45 50 51 51 54
17 12 7 4 3 3 3 3 3 3 4 4 5 9 15 19 16 14 20 31 39 39 36 39 40 36 37 44 47 49 53 53 56 61 64 64 63 63 62 57 57 62 60 58 62 58 54 58 57 49 48 49 49 52 55 52 44 37 36 37 37 36 37 39 45 47 43 40 41 47 50 51 51 52
19 14 8 5 4 3 3 4 4 4 5 6 7 11 15 16 16 12 7 12 20 24 30 33 28 29 39 46 53 55 44 40 54 62 60 63 67 67 65 61 57 58 61 63 63 57 52 54 55 49 46 47 49 51 52 50 46 41 40 40 38 37 39 40 42 43 41 40 44 49 51 51 50 50
23 15 9 5 4 4 5 5 5 5 7 9 9 11 15 15 13 10 9 10 10 10 17 17 17 34 45 42 51 52 29 23 46 59 59 62 65 64 58 55 57 62 69 70 63 54 51 50 49 50 49 49 49 48 47 46 44 45 49 50 44 40 41 42 42 41 41 44 47 50 52 50 49 49
24 15 9 6 4 6 7 6 7 8 9 11 10 10 14 15 12 10 9 12 11 11 14 12 17 38 42 30 38 48 34 27 37 43 48 51 53 55 56 58 61 62 66 71 64 53 49 49 50 51 51 51 51 49 45 44 44 48 54 56 51 46 44 45 46 46 46 48 50 51 51 49 49 49
23 14 9 7 6 7 9 9 11 12 11 11 12 14 16 15 12 11 10 12 12 12 14 14 14 24 26 21 29 37 34 32 32 35 47 55 57 64 66 61 56 52 55 64 65 57 52 53 53 51 49 52 55 54 52 49 49 53 55 56 55 52 46 45 48 48 46 48 50 50 50 49 49 47
21 14 10 9 9 11 13 13 13 13 13 16 21 23 23 17 12 12 12 12 13 13 14 17 17 19 22 22 26 30 31 31 29 34 52 63 61 63 61 52 49 51 50 52 61 62 55 54 54 51 50 52 53 54 55 51 50 53 54 55 57 55 49 48 52 53 48 45 46 48 49 50 49 48
20 15 11 10 13 17 18 15 14 15 16 23 31 32 26 18 13 12 13 13 14 16 16 16 16 18 22 22 25 32 36 34 29 29 42 56 60 58 55 50 49 51 45 44 55 60 54 54 56 53 52 52 50 51 51 47 46 47 49 52 54 53 52 54 60 62 55 45 43 48 53 54 53 54
21 19 14 13 18 23 21 17 17 18 18 24 32 31 26 22 17 14 13 14 16 16 15 20 22 18 18 21 25 31 35 33 30 28 34 49 60 61 56 52 51 49 44 45 56 59 55 55 56 54 51 49 47 48 47 44 44 43 44 48 51 51 52 54 59 64 60 52 50 55 60 63 63 65
27 25 20 18 21 22 20 18 18 20 20 24 30 29 25 24 25 23 16 13 17 17 17 33 44 31 17 16 21 27 31 27 23 24 30 43 59 63 58 53 52 51 47 50 57 58 57 56 55 55 52 47 46 47 43 42 43 41 42 46 48 49 51 52 56 61 63 61 60 63 66 69 71 72
36 31 24 21 22 22 23 23 24 25 25 27 31 29 22 21 25 26 20 16 18 18 19 37 50 39 26 26 32 41 45 39 31 29 29 36 51 62 61 56 53 52 51 54 55 55 57 57 56 56 53 48 48 47 43 42 43 42 43 45 47 48 49 51 54 59 63 65 64 65 68 70 71 72
45 34 24 23 27 31 33 33 33 35 35 36 35 29 23 20 17 16 21 25 24 22 29 45 53 47 42 44 50 58 60 54 50 48 42 40 47 57 60 60 59 56 55 56 55 56 61 62 58 57 56 53 53 50 45 44 45 44 44 44 47 48 49 51 55 57 62 65 65 67 70 70 69 69
50 38 28 31 38 41 41 41 40 40 42 43 39 31 26 24 17 15 24 32 28 27 42 59 64 57 51 48 49 55 55 49 48 56 60 59 59 61 62 60 59 59 59 59 59 60 63 63 61 60 59 58 56 53 48 46 47 46 45 45 47 47 48 52 55 56 59 62 65 70 70 68 69 69
54 46 40 44 49 47 46 46 45 46 47 48 45 37 30 25 22 22 27 31 32 37 53 69 71 65 60 55 51 50 48 41 40 49 58 58 56 61 65 63 61 64 64 60 55 55 57 60 61 61 61 59 57 53 50 50 49 47 46 47 49 49 50 53 54 56 58 59 65 70 68 68 71 70
61 54 52 55 55 53 52 52 52 53 57 58 55 47 37 33 35 40 42 44 51 60 70 75 72 68 66 61 57 56 51 39 31 34 38 38 40 51 61 64 64 65 65 63 59 57 57 57 59 62 62 59 57 54 52 50 49 48 47 46 48 51 52 52 53 55 58 61 66 71 68 67 71 68
61 57 60 62 60 58 58 57 57 58 62 66 65 57 48 43 46 53 57 61 69 75 76 74 70 66 64 62 64 66 57 39 28 28 33 39 46 54 60 63 60 57 58 61 63 62 57 53 57 61 61 58 56 54 52 50 48 48 47 45 47 50 51 53 54 54 58 64 68 68 66 66 69 66
63 62 66 68 66 65 64 63 62 63 65 67 68 66 61 55 54 57 63 70 77 80 78 74 70 67 65 64 66 64 54 40 33 34 37 42 47 50 52 55 55 51 48 49 53 57 57 56 57 60 61 61 59 55 54 53 51 49 46 45 47 48 49 53 54 54 61 68 68 64 62 67 70 66
68 68 69 71 72 72 73 72 70 70 70 69 68 68 68 67 66 66 66 70 76 80 79 76 72 68 66 66 65 59 50 43 39 38 39 41 44 44 46 49 52 50 44 41 43 48 54 59 60 58 57 58 57 56 56 55 53 50 47 46 47 47 50 53 53 56 65 69 65 62 62 67 70 66
72 71 71 73 74 75 76 77 77 77 77 75 74 72 72 74 77 76 74 73 76 80 82 79 75 70 66 64 62 58 55 50 45 42 42 45 45 44 45 48 51 48 42 40 41 43 47 55 59 57 53 52 54 57 57 56 55 53 49 47 47 48 50 53 55 59 65 64 61 61 63 66 69 67
73 72 72 73 75 76 77 77 79 81 81 82 83 82 79 80 82 82 79 76 77 78 78 76 72 70 68 66 61 58 58 56 51 47 46 46 45 45 47 51 52 49 43 40 42 43 44 47 50 51 49 49 52 54 55 55 55 54 50 48 47 49 52 54 57 61 62 59 57 61 63 64 66 66
74 74 74 75 77 78 79 79 80 81 82 83 86 87 84 83 84 83 78 75 74 72 73 75 74 72 74 75 70 65 62 60 57 54 51 49 46 46 48 50 50 48 45 40 40 43 45 44 44 44 43 45 47 48 53 58 57 55 54 51 50 53 55 55 57 60 61 58 57 61 66 65 63 64
78 76 76 78 80 81 81 82 82 81 83 85 85 86 82 77 78 79 78 77 74 69 71 77 74 69 74 80 78 73 69 66 62 57 51 50 52 51 50 51 52 52 49 45 43 43 42 43 45 44 43 46 46 46 52 60 57 53 54 54 55 57 56 54 55 57 59 59 58 62 67 65 62 65
81 80 79 80 82 82 82 84 83 84 86 85 81 79 75 71 72 72 73 78 80 74 75 80 76 71 77 82 79 75 74 70 66 59 51 50 54 54 52 53 55 54 52 49 47 44 42 45 48 47 47 51 51 48 49 53 51 50 52 54 56 57 56 56 58 58 60 61 59 61 67 65 64 69
83 83 82 82 82 82 83 85 85 85 85 81 76 75 73 72 72 70 72 80 81 69 66 74 77 78 82 80 74 73 73 70 66 61 57 56 55 53 53 53 53 52 51 48 44 42 42 45 48 47 47 50 52 51 51 50 49 49 51 53 54 56 58 62 64 62 63 63 59 59 65 66 66 72
86 85 82 81 81 82 85 86 85 84 82 79 76 76 75 74 74 74 79 85 76 59 57 65 69 70 74 74 71 70 70 68 65 62 61 62 59 55 54 54 52 50 47 43 42 42 41 41 43 45 48 51 52 54 57 55 50 48 51 54 56 58 59 61 63 65 66 64 60 61 65 65 65 69
86 83 81 81 82 84 87 86 82 80 80 79 78 77 76 76 74 71 73 74 63 52 54 59 56 53 57 63 69 71 67 66 67 65 63 64 63 59 56 54 53 51 46 42 42 43 41 42 45 47 49 54 58 61 63 60 55 52 56 59 60 59 58 57 58 62 62 59 59 64 67 66 65 64
82 80 80 81 84 88 88 84 80 78 77 77 76 70 63 62 62 61 64 66 61 53 53 55 52 49 48 51 60 68 67 65 65 65 65 67 65 61 55 50 50 51 47 43 42 43 42 44 47 49 51 58 65 66 62 56 51 50 53 57 60 61 58 56 56 59 58 57 59 63 66 66 64 59
81 81 82 81 84 88 86 79 75 74 72 71 70 62 46 37 37 39 41 45 45 43 45 48 50 49 46 44 46 52 58 63 64 64 65 64 61 57 52 47 48 50 49 45 44 44 43 43 46 50 56 62 64 62 55 51 49 49 50 55 61 62 59 56 57 58 58 58 60 61 64 66 63 55
84 85 85 80 75 75 74 70 66 65 66 67 68 64 51 37 31 29 26 25 27 29 32 38 45 49 48 44 41 44 52 61 65 65 65 64 59 55 51 49 50 51 48 45 44 43 43 44 45 48 54 60 61 57 53 52 52 52 52 55 60 63 62 60 61 61 60 60 62 64 66 67 62 52
83 81 77 69 62 61 66 68 66 66 69 68 64 59 52 44 36 31 25 21 20 20 19 24 38 49 47 40 42 50 58 63 66 66 66 64 60 54 49 49 52 53 51 48 45 42 42 43 45 48 54 59 61 59 56 55 54 55 55 56 60 64 65 65 67 67 65 64 65 65 65 65 63 55
79 71 65 62 63 64 67 70 70 69 69 67 62 58 57 52 43 33 25 18 15 14 13 15 26 39 43 41 47 56 61 63 64 63 59 57 54 51 49 50 50 49 48 47 45 44 44 43 45 49 55 60 63 63 61 59 59 60 61 61 62 64 64 65 68 68 67 67 67 65 63 64 63 57
Wind_Speed
18 19 20 17 15 15 15 15 17 16 15 14 12 12 13 12 11 11 11 12 13 13 14 12 11 14 17 19 20 17 16 17 17 16 16 15 15 15 14 13 14 13 12 12 13 14 15 15 15 16 15 16 17 17 18 20 21 21 22 22 23 25 27 29 31 33 35 37 39 40 43 44 45 46
17 18 20 19 17 17 17 18 18 18 17 16 15 13 13 13 13 12 11 11 11 13 14 11 10 15 18 17 18 17 16 17 16 15 15 15 14 14 13 13 13 13 13 13 14 15 15 15 16 16 15 16 16 17 18 19 20 20 20 21 22 24 27 30 32 34 35 37 39 41 43 45 46 47
17 18 18 18 18 19 18 17 17 17 17 17 15 14 14 14 14 13 11 10 9 11 12 11 12 15 18 17 17 16 15 16 15 14 14 14 14 14 14 13 12 13 14 14 14 15 15 16 16 16 15 16 16 16 17 18 18 19 19 21 22 25 27 30 32 34 36 38 40 41 43 45 47 48
17 18 17 17 18 18 16 16 16 16 16 16 15 14 14 14 14 14 12 11 9 9 11 12 13 16 17 17 15 12 13 16 15 13 14 14 14 15 14 13 14 15 15 16 15 14 15 16 16 15 15 15 15 15 16 17 17 18 19 21 23 25 27 29 32 34 36 38 40 42 44 46 48 49
17 17 16 17 17 16 15 16 16 15 15 15 14 14 13 12 13 13 12 11 10 11 15 15 15 17 17 15 13 10 11 15 14 11 13 16 17 15 11 10 15 18 17 16 16 15 15 15 15 15 15 14 14 14 15 16 17 18 20 21 24 26 28 29 31 33 36 38 40 42 44 46 48 50
17 16 16 16 16 16 16 16 14 14 13 12 11 12 11 10 11 12 12 11 11 12 16 18 16 18 16 11 10 11 11 12 13 10 11 15 16 14 10 7 12 18 18 16 15 14 14 14 13 13 13 12 12 13 15 16 18 19 21 22 25 27 28 29 30 33 35 37 40 42 44 46 48 50
16 16 16 16 16 16 16 15 13 12 12 11 10 11 11 10 11 12 12 12 10 10 13 15 14 15 15 10 9 12 12 12 13 10 10 12 11 11 11 8 9 17 19 16 14 14 12 12 13 13 13 11 12 14 16 17 19 21 23 24 26 27 28 29 30 32 34 37 39 42 44 46 48 50
16 16 16 16 16 16 15 14 13 12 12 12 11 11 10 10 11 11 11 11 10 10 12 13 10 11 12 11 10 11 13 13 13 12 10 10 9 9 10 8 9 15 17 14 12 12 11 11 12 13 12 12 13 15 17 18 20 22 24 26 26 27 28 29 30 32 34 36 39 41 44 46 48 50
17 17 16 16 16 16 15 13 13 12 12 11 10 10 8 9 10 9 9 10 10 11 11 10 9 9 10 11 11 12 11 10 10 11 10 10 10 11 10 8 10 13 14 13 11 11 11 12 12 12 13 13 14 17 18 20 21 23 24 25 26 27 28 29 30 31 33 36 39 41 43 46 48 50
18 17 17 17 16 16 15 14 13 12 11 11 10 10 9 8 9 9 8 8 9 9 8 8 9 10 11 11 11 11 10 8 8 8 8 9 9 10 10 8 9 10 11 12 11 10 10 11 12 13 13 14 16 18 19 20 21 22 23 25 26 27 28 29 30 31 33 35 38 41 43 45 48 50
17 17 17 17 17 16 16 15 13 12 12 12 11 11 10 9 8 8 8 8 8 7 7 8 7 8 10 9 8 9 11 11 9 7 7 7 8 8 10 9 8 7 9 11 12 11 11 12 13 15 15 15 17 19 19 19 20 22 24 26 27 27 28 29 30 31 33 35 38 40 42 45 47 49
16 16 17 17 17 17 16 14 13 13 12 12 12 11 11 10 8 7 6 6 6 7 8 7 6 7 8 8 8 9 11 9 7 7 8 9 9 9 9 8 7 7 8 9 10 11 12 12 13 15 15 15 17 19 17 17 20 24 26 27 28 28 28 29 30 31 33 35 37 39 41 44 46 48
16 16 17 18 18 17 15 14 14 14 13 12 12 12 11 10 9 7 6 5 6 7 7 7 7 7 7 7 7 8 8 6 6 8 10 10 9 8 9 8 8 8 8 8 9 9 9 10 11 12 12 12 15 16 13 14 20 24 26 27 28 28 28 29 30 31 33 35 37 38 40 43 45 47
16 16 17 17 17 15 14 14 15 15 15 15 15 14 12 10 9 7 6 6 7 7 7 7 7 7 7 7 7 7 7 7 9 9 9 9 8 8 9 7 7 9 11 10 9 9 9 10 10 11 11 11 12 12 11 15 21 24 25 27 29 29 28 28 29 31 33 35 36 37 39 42 44 46
16 16 17 17 16 15 15 16 16 16 16 17 17 15 12 10 10 9 8 8 7 8 7 7 7 7 7 7 8 7 7 8 9 8 7 8 8 8 9 8 7 10 13 13 10 9 10 9 10 11 11 11 12 12 13 17 22 23 25 27 29 29 28 27 28 30 32 34 35 36 38 41 44 46
16 16 17 17 16 16 17 16 16 17 17 17 17 15 12 11 10 11 11 10 9 8 7 7 7 7 7 7 8 7 7 7 8 8 7 8 8 8 9 9 8 10 13 13 10 11 11 9 10 11 11 12 14 14 15 19 22 23 25 27 29 30 29 27 28 29 31 33 34 35 38 41 43 45
17 17 17 18 18 18 17 17 17 17 17 17 16 15 12 11 10 11 12 12 12 10 9 9 9 8 7 7 7 8 9 8 7 7 7 8 9 9 10 10 11 11 12 12 11 12 10 8 10 12 12 13 15 14 15 19 22 24 25 27 29 30 29 28 28 28 30 32 33 35 38 40 42 44
18 18 17 18 19 19 18 18 18 18 17 17 16 15 13 11 11 12 12 12 12 11 11 11 10 9 9 9 8 10 11 9 7 8 8 9 9 11 12 12 13 12 11 11 12 12 11 10 12 13 13 15 16 15 15 18 22 25 26 28 30 31 30 29 29 29 30 31 33 35 38 40 41 43
18 18 18 18 19 19 19 19 19 17 17 16 15 15 13 12 12 13 13 12 12 11 12 12 11 11 12 11 10 11 11 10 10 10 11 11 12 13 13 13 11 10 9 10 12 13 12 12 13 14 15 16 17 16 15 17 21 25 26 27 30 32 31 30 29 29 30 31 34 35 37 39 40 41
19 18 19 20 20 20 21 20 18 17 16 15 15 15 14 13 14 14 13 13 12 12 12 12 11 12 12 11 11 11 11 10 11 12 11 12 12 12 12 11 9 8 8 9 10 12 13 13 13 15 16 17 18 17 15 16 21 24 24 26 28 31 32 31 29 29 31 32 33 34 36 38 39 41
19 20 21 22 22 21 21 19 19 18 17 15 14 14 14 14 15 15 14 13 12 12 12 11 11 12 12 12 12 12 12 11 12 12 11 10 10 11 11 11 10 9 10 10 10 11 14 13 13 15 17 18 18 17 16 18 22 23 22 24 26 28 31 32 30 31 33 33 33 34 35 36 39 41
20 21 22 23 22 21 20 19 19 19 18 16 14 13 14 15 15 15 15 13 13 12 11 11 11 12 13 13 13 13 13 13 13 12 12 11 10 11 12 11 11 11 10 11 13 13 14 14 13 15 17 18 17 16 17 20 22 22 22 23 24 26 30 31 29 31 34 34 34 34 34 35 39 41
21 22 22 22 22 21 20 19 20 20 18 17 15 14 14 15 15 16 15 13 13 12 11 11 12 13 14 14 14 14 14 14 14 13 13 12 11 12 12 11 12 12 10 12 16 15 13 13 14 15 18 19 18 17 19 22 22 22 23 24 24 25 28 29 27 28 31 34 34 34 34 36 38 39
22 22 22 23 23 21 20 20 20 20 19 17 15 14 14 14 15 15 14 13 13 12 11 11 12 14 15 15 15 16 16 15 15 14 14 13 12 13 13 12 13 12 10 13 17 15 13 14 15 15 17 20 21 20 22 23 22 22 24 24 25 25 26 26 25 26 29 32 33 32 33 34 36 36
22 22 22 23 23 21 20 20 20 19 18 16 15 14 13 14 15 14 13 13 14 13 12 12 13 13 14 14 14 15 15 15 15 14 14 13 13 13 13 12 13 13 11 14 18 16 14 15 15 15 17 19 21 22 23 23 22 22 24 24 24 25 25 25 25 25 27 29 30 30 30 31 32 33
21 21 22 22 21 20 19 19 19 17 15 14 14 13 13 14 15 14 14 13 14 14 13 11 11 11 12 12 12 12 12 12 13 14 14 14 13 14 14 13 14 14 13 15 18 16 14 14 15 16 17 19 20 22 23 23 23 23 25 24 23 24 25 24 24 25 26 28 29 29 28 28 30 31
20 20 22 22 20 19 19 18 17 15 14 13 12 12 13 15 15 16 15 14 14 15 14 12 11 12 11 11 11 12 12 12 12 13 14 14 14 14 14 14 15 15 15 15 16 15 14 15 15 15 17 18 21 22 23 23 23 24 25 25 23 24 24 23 24 25 26 27 28 28 26 26 29 30
19 21 22 21 20 19 18 16 15 14 13 12 10 11 14 15 16 17 17 16 15 15 14 13 13 13 12 12 12 11 11 12 12 13 15 15 15 15 15 15 15 16 17 17 16 15 15 16 15 16 17 18 20 22 22 23 24 24 25 25 24 23 22 23 24 25 26 28 27 26 26 26 27 29
21 22 22 21 19 18 17 16 15 15 13 11 10 12 15 16 16 17 16 15 15 15 14 14 13 13 12 12 12 12 13 15 16 17 17 18 17 16 16 16 16 17 18 19 17 15 15 16 16 16 16 18 19 21 22 23 24 23 23 24 24 22 21 22 24 24 27 28 26 25 26 25 25 28
23 23 21 20 19 18 17 17 17 16 15 13 12 14 16 17 18 18 17 16 15 14 14 13 13 12 12 11 11 13 16 18 18 16 16 15 15 14 14 15 16 16 17 18 16 14 14 15 15 17 18 19 19 20 21 23 23 22 22 22 22 22 21 22 23 24 26 28 25 24 25 24 24 26
23 23 22 21 20 19 18 18 17 17 17 17 16 16 17 18 19 19 18 17 16 14 13 13 12 12 12 11 11 12 14 15 14 14 14 14 14 14 14 15 15 15 15 15 15 15 15 14 14 16 19 20 20 21 21 21 21 22 21 21 21 21 21 22 23 24 26 27 25 24 25 23 23 25
24 24 24 23 22 21 20 19 19 19 19 19 19 18 18 17 18 19 20 20 19 16 14 14 13 13 12 12 12 12 12 12 12 12 13 14 15 14 14 15 15 15 15 15 15 15 16 16 16 17 18 19 21 21 20 19 19 19 20 21 20 20 20 21 23 24 26 26 25 25 25 23 22 23
26 25 25 25 24 23 22 21 20 20 19 19 19 19 19 18 18 18 20 22 21 19 16 15 15 15 14 14 13 12 12 12 11 11 13 14 14 14 15 15 15 15 16 16 16 16 16 17 18 20 21 20 19 18 17 17 16 16 18 20 20 20 20 20 22 23 24 25 25 25 24 22 21 22
25 25 27 27 25 24 23 22 22 21 19 19 18 17 18 18 18 18 19 19 19 18 18 17 17 17 16 15 15 15 14 12 11 12 13 14 14 14 15 15 15 15 16 17 16 16 17 17 17 19 21 21 20 19 17 15 14 15 17 18 19 19 19 19 21 22 23 24 24 24 24 23 21 22
26 27 27 26 24 23 22 22 22 21 19 19 18 17 16 16 17 18 19 19 19 19 19 20 19 19 18 17 16 15 15 14 12 12 12 13 13 14 15 15 16 15 16 16 16 16 17 17 17 18 20 20 20 20 17 13 13 14 17 18 18 18 19 20 21 21 21 22 24 23 22 23 22 22
26 27 27 25 22 20 20 22 23 22 19 17 17 17 16 17 17 17 18 20 20 20 20 21 22 22 21 20 18 17 18 19 17 13 12 12 12 13 15 16 16 16 16 16 17 16 16 16 16 18 20 20 20 19 16 14 14 15 16 17 17 18 20 22 22 21 20 21 23 22 21 23 22 21
26 26 26 24 22 21 21 22 21 20 17 15 15 15 15 16 17 18 18 19 21 23 22 22 23 23 22 21 21 20 21 22 20 16 13 13 13 13 14 15 15 16 15 16 16 15 15 15 15 17 18 18 18 19 17 16 16 16 17 18 17 19 21 21 20 19 19 20 23 23 21 21 21 20
27 27 26 25 25 25 24 21 19 17 16 15 15 15 16 16 17 17 18 19 22 25 26 25 24 24 22 22 22 21 20 20 19 18 15 13 12 14 14 14 15 14 14 15 15 15 14 14 15 16 17 17 18 19 18 17 17 17 18 19 18 19 20 17 16 17 18 19 23 24 21 20 19 19
29 28 27 27 27 26 24 20 17 16 16 16 16 16 16 16 16 16 17 19 22 24 25 26 26 26 25 23 20 19 19 18 18 18 17 15 14 14 14 14 14 14 14 15 15 14 15 16 16 15 15 17 19 18 18 18 17 16 18 18 17 18 18 16 15 16 16 18 22 22 19 19 20 17
29 28 26 26 26 24 21 18 16 16 17 16 16 16 15 15 17 18 19 22 24 23 23 24 26 26 26 24 20 17 17 17 16 17 17 16 15 14 14 14 14 14 14 15 15 14 15 16 15 15 17 19 19 18 16 17 16 15 15 16 16 17 18 18 18 18 18 21 22 19 18 21 20 16
26 25 23 23 22 20 17 16 16 16 16 15 15 16 17 17 18 19 20 21 22 23 23 24 24 24 25 25 23 21 19 18 17 17 17 17 17 16 17 18 17 15 14 15 15 15 15 15 17 20 21 20 17 15 14 15 15 13 12 14 17 18 18 18 20 20 20 21 20 18 20 22 20 15
22 21 20 20 18 16 16 17 17 16 15 15 15 16 17 18 18 19 19 20 21 22 22 23 23 23 23 24 25 26 25 22 20 17 15 14 14 15 15 17 17 16 15 14 15 15 15 15 18 20 20 17 14 14 14 14 14 13 13 14 17 19 20 20 20 20 20 19 18 19 21 23 20 16
20 18 17 17 17 17 17 17 18 17 16 15 14 14 16 17 18 18 18 19 19 19 19 20 21 21 22 22 24 25 25 24 23 21 18 16 16 16 15 14 15 15 15 15 15 15 15 16 17 17 16 15 14 13 13 13 13 14 14 14 14 16 19 20 19 19 20 19 18 18 21 22 20 18
19 18 17 18 18 18 17 16 16 16 15 14 15 15 16 16 17 17 16 16 17 18 18 18 18 19 20 21 21 21 21 20 20 20 19 17 17 17 16 14 13 14 14 14 15 15 15 15 16 15 15 15 13 12 12 13 13 14 14 14 13 14 14 15 16 17 18 19 19 20 21 22 21 19
19 18 18 18 17 17 17 16 16 15 15 16 17 17 16 15 14 14 14 14 15 16 17 17 17 18 19 19 18 18 18 18 18 18 17 15 14 14 15 15 15 14 14 14 14 14 15 15 15 14 14 14 12 12 12 13 14 14 14 14 14 13 12 12 12 13 14 17 19 20 21 21 22 21
Wind_Direction
237 229 227 225 225 229 232 232 233 232 229 225 223 223 224 231 236 233 230 228 227 218 211 222 240 247 264 283 290 294 294 296 306 311 314 319 320 325 332 334 335 335 334 337 336 336 341 346 345 342 344 348 347 345 345 345 345 346 348 353 359 0 359 357 356 355 354 353 353 352 352 351 349 348
237 230 230 228 227 232 235 235 234 233 232 227 222 223 226 230 237 242 246 243 227 213 217 223 234 255 275 289 294 295 289 291 302 305 307 313 316 322 330 333 334 331 333 340 337 335 339 341 340 340 343 346 344 343 344 344 344 345 350 356 360 1 359 357 356 354 353 352 352 352 351 350 349 348
237 232 233 232 230 235 236 234 233 233 232 228 224 228 229 230 234 237 247 254 231 212 222 227 228 253 277 289 292 292 286 288 300 304 306 312 315 322 329 333 336 332 334 340 336 333 338 337 336 340 344 344 342 343 344 343 344 347 353 357 358 358 356 355 354 353 352 351 351 351 351 350 349 348
235 234 234 232 231 234 231 230 233 231 230 228 228 231 232 232 235 233 236 247 241 226 228 231 239 258 276 284 284 281 279 287 300 306 307 310 316 324 329 329 333 335 334 333 332 332 334 334 336 340 343 342 341 345 345 343 345 350 354 356 355 353 351 351 351 350 350 350 350 350 350 349 349 349
232 232 230 229 230 228 225 229 231 229 230 232 232 234 233 233 238 236 232 234 239 244 249 249 255 268 276 277 272 258 257 281 300 309 306 311 321 329 330 317 312 319 326 326 327 331 332 335 340 342 342 342 343 346 345 346 349 351 353 353 351 349 347 347 347 348 348 349 349 349 349 348 348 349
231 229 226 228 229 225 224 226 226 227 231 230 230 234 230 227 236 236 227 227 233 245 259 263 260 266 273 265 257 257 252 268 287 294 296 308 320 322 322 312 291 298 314 322 323 328 332 338 343 342 340 342 345 347 348 351 351 349 349 348 347 345 344 344 344 345 346 347 348 348 348 348 348 349
230 226 224 226 226 224 223 221 221 226 228 222 223 231 230 227 233 233 222 224 231 233 255 268 258 256 268 254 234 257 267 272 282 289 293 302 307 298 304 316 284 287 306 320 321 327 336 343 344 341 338 339 343 346 349 352 350 348 346 344 342 341 341 341 341 343 344 346 347 348 347 347 347 348
225 223 222 222 222 220 218 217 220 224 226 225 227 231 233 229 230 234 226 220 225 226 245 264 250 236 256 255 233 250 272 285 297 309 310 304 304 294 293 296 276 284 304 317 320 327 339 345 343 338 335 335 339 343 347 348 345 344 342 340 338 338 338 339 339 341 343 345 346 347 347 346 346 347
219 219 219 219 217 216 215 215 218 221 222 223 226 224 221 224 228 230 222 215 224 235 241 249 237 222 238 251 252 259 274 294 307 313 310 297 300 307 305 292 281 291 308 319 322 328 339 344 342 337 333 333 337 341 342 340 338 337 337 337 337 336 336 337 337 340 342 344 345 346 347 346 346 347
217 217 217 218 216 214 214 215 214 217 217 214 219 216 204 213 227 221 218 232 247 248 234 225 227 230 238 251 266 276 286 297 296 293 292 290 294 305 310 302 292 294 305 315 323 328 335 340 341 338 334 333 337 339 336 334 335 337 339 341 340 336 334 334 336 339 342 343 344 345 346 346 346 347
217 217 218 218 218 216 215 213 209 210 212 210 212 213 208 212 220 222 239 263 259 233 222 226 227 234 247 257 263 279 297 309 310 302 296 295 293 294 298 298 294 292 297 311 323 324 327 336 340 341 341 336 333 335 336 337 341 343 344 344 341 337 333 333 335 338 341 343 344 345 346 346 346 347
220 220 221 219 219 218 215 211 208 208 209 209 210 215 216 214 218 237 261 261 235 218 223 231 223 226 252 265 260 275 300 315 313 296 295 302 302 299 299 293 288 295 302 310 317 316 319 327 332 335 339 334 329 334 341 339 337 341 342 341 341 338 333 332 334 337 340 343 344 345 346 347 347 348
220 222 222 220 218 217 214 210 209 208 206 204 207 211 211 212 226 247 254 229 217 220 223 226 227 230 243 253 254 270 288 288 273 279 297 310 310 305 306 295 282 295 312 316 313 310 309 314 321 326 330 326 326 335 340 330 331 337 340 341 342 339 334 332 333 336 339 342 344 345 346 347 347 348
220 221 222 221 218 215 213 212 209 208 206 205 208 209 209 219 233 235 225 217 215 218 222 226 231 236 237 239 249 260 262 265 277 289 300 309 309 308 310 305 289 297 315 323 320 313 306 310 319 322 323 323 326 328 323 325 336 341 342 344 345 342 337 334 333 335 338 341 344 345 346 346 347 348
221 222 221 221 218 214 212 212 209 207 208 210 213 213 218 232 238 223 210 210 213 220 228 230 230 236 244 247 253 260 261 270 287 296 297 300 308 310 311 314 306 302 313 323 324 315 308 307 314 320 322 323 324 319 313 323 338 345 346 348 349 347 343 337 334 336 339 342 344 345 346 346 347 349
222 223 221 219 217 215 214 212 211 209 210 214 217 218 227 241 242 230 217 210 211 217 220 224 229 234 245 254 253 253 257 270 286 294 295 296 303 308 309 313 312 305 312 321 322 315 312 306 307 318 324 321 322 321 315 319 332 343 350 352 354 353 348 342 340 339 340 344 345 346 347 347 348 349
223 224 222 220 217 215 213 210 209 211 213 218 220 222 231 243 240 232 226 221 220 220 215 219 227 231 240 250 251 253 261 274 283 288 295 297 300 304 303 304 307 306 310 319 319 315 317 312 308 315 321 322 325 324 316 315 325 337 347 354 358 358 353 348 346 344 344 346 347 348 348 347 348 350
225 225 223 220 217 214 210 209 209 212 217 221 222 225 236 245 235 226 227 229 229 226 223 223 224 229 239 241 242 256 271 282 282 276 284 288 289 297 302 307 312 310 304 312 321 320 319 317 313 312 315 322 326 324 318 317 322 331 341 349 355 359 357 353 350 350 350 350 351 351 349 348 349 350
224 223 218 215 214 212 210 209 208 212 218 220 221 227 237 242 232 224 225 229 227 223 224 223 218 224 240 246 245 257 272 282 280 279 285 290 296 306 311 312 315 309 298 306 318 319 317 317 316 314 314 319 322 324 324 318 321 330 338 343 348 353 356 355 353 354 355 354 354 352 349 349 349 349
221 217 212 211 211 211 210 208 206 208 213 216 220 228 235 235 228 224 226 226 223 221 223 227 229 235 248 255 253 257 266 271 277 285 291 295 300 304 303 304 305 302 301 305 309 314 316 316 316 316 317 318 318 320 322 318 324 334 338 337 341 345 349 352 355 357 359 358 357 354 352 351 349 351
218 214 210 208 208 210 212 210 207 207 209 212 219 227 233 232 227 226 229 226 222 223 225 230 238 245 252 257 257 259 264 267 272 278 281 285 291 290 292 300 301 301 306 298 292 307 316 315 315 316 317 319 318 320 322 323 330 337 336 334 338 339 342 348 352 356 360 2 0 358 356 352 351 355
215 213 210 206 207 211 213 211 207 206 209 213 220 226 230 231 227 227 231 229 223 225 229 234 242 248 254 258 259 259 262 265 269 269 266 269 279 282 288 297 298 302 307 289 283 302 315 314 316 319 320 321 321 322 326 329 333 337 336 335 337 336 338 343 347 349 354 360 2 359 357 355 355 357
211 212 209 204 205 209 211 209 206 208 213 216 220 225 228 230 229 229 231 229 225 229 236 242 250 255 257 258 259 259 262 263 265 266 263 263 268 276 284 293 295 300 306 292 291 307 317 313 317 324 324 325 324 325 329 331 332 336 338 338 337 337 339 343 344 344 348 356 360 356 353 355 355 354
208 209 207 204 207 210 209 209 210 214 218 219 220 224 226 227 229 230 231 228 227 233 239 242 249 256 261 263 262 263 264 265 265 264 260 257 258 266 276 285 287 290 296 293 295 308 316 312 315 322 325 325 323 324 329 330 330 335 339 339 339 340 341 343 343 341 344 352 354 350 351 353 351 351
207 208 206 205 209 211 210 212 215 218 219 219 220 223 224 226 226 225 226 226 229 236 240 241 248 257 263 266 264 261 263 267 269 267 262 257 254 257 265 274 279 284 288 286 290 302 310 308 310 316 321 322 321 322 326 328 330 334 337 338 340 341 342 343 343 341 343 348 349 349 352 352 349 353
204 206 205 205 209 211 211 213 214 215 216 218 221 222 223 226 223 217 217 223 231 239 241 241 247 253 255 255 253 250 250 254 260 264 264 261 257 255 257 261 268 276 281 284 290 298 301 300 304 310 314 317 319 320 322 325 328 331 334 337 339 341 343 345 345 343 343 345 346 349 353 350 350 358
199 201 203 205 207 208 208 210 209 209 213 217 221 222 223 224 220 214 215 222 231 238 240 238 241 245 248 247 245 246 249 250 251 254 256 257 258 258 260 261 265 271 276 281 287 290 291 293 297 302 306 310 314 317 320 323 325 327 331 334 336 340 344 346 346 345 345 345 345 348 352 350 353 1
195 199 202 203 202 203 204 206 206 208 213 215 217 219 220 220 217 216 218 224 232 239 241 241 244 247 248 246 245 245 247 247 246 247 250 255 258 259 262 264 269 274 277 281 283 280 280 285 289 294 300 304 308 312 316 319 321 324 329 331 333 338 343 345 346 346 346 347 347 349 352 353 355 360
195 198 200 198 198 199 201 203 206 209 213 213 213 215 216 215 216 217 221 226 233 239 241 243 248 249 247 247 247 245 246 250 255 258 261 265 267 266 265 267 272 279 282 285 286 279 274 280 285 290 297 301 304 308 313 316 319 322 326 329 330 335 340 342 345 347 347 348 349 350 352 355 356 359
195 195 196 196 198 201 202 206 212 215 216 216 217 218 217 217 218 219 223 229 234 238 242 245 247 246 247 249 246 248 256 263 267 265 263 263 264 263 263 265 273 281 284 284 284 279 277 282 286 290 297 301 302 304 308 313 316 319 323 328 330 333 337 341 343 346 347 349 349 349 352 354 356 0
195 195 197 199 202 205 206 210 215 219 219 220 222 224 223 224 224 224 227 231 234 237 241 246 246 245 248 247 243 250 262 268 265 259 255 254 254 256 259 262 268 278 284 284 282 277 276 282 287 291 297 300 300 302 305 308 311 316 322 328 331 332 336 340 342 344 347 349 349 349 352 355 357 2
196 196 198 201 205 208 210 214 218 222 224 225 227 230 231 232 233 233 232 233 235 237 239 243 245 245 246 245 245 250 255 255 254 252 250 251 253 254 257 261 267 277 285 288 286 281 282 288 294 299 302 300 299 301 303 304 308 314 321 328 331 332 336 340 342 343 345 348 349 348 352 357 358 2
196 196 199 205 209 212 214 218 222 224 227 230 234 236 238 237 237 238 239 237 238 239 240 242 243 244 245 247 251 252 247 246 251 250 246 250 253 254 256 259 264 274 283 287 289 289 291 296 301 308 316 314 308 306 306 306 308 314 322 328 331 333 336 339 342 344 345 347 348 347 350 356 358 0
199 200 205 209 212 215 218 222 225 226 229 233 235 238 243 242 237 236 238 239 238 240 241 243 243 243 243 244 248 250 247 245 248 251 254 257 256 253 255 257 261 270 278 284 288 291 295 298 301 309 316 316 313 312 312 307 308 314 322 328 331 332 335 337 340 343 346 347 349 348 348 353 356 357
204 206 210 213 215 218 221 225 227 229 233 239 240 239 243 243 239 236 235 234 236 240 243 243 241 240 240 241 243 244 243 243 247 254 260 261 256 253 254 256 260 267 275 282 287 290 295 300 302 309 315 315 314 315 311 305 311 319 322 327 331 333 334 336 339 343 345 347 350 350 349 351 353 353
209 211 214 215 216 218 222 226 230 231 233 239 242 240 239 240 240 238 236 233 234 237 240 243 243 242 241 243 243 242 244 248 252 253 254 255 254 254 255 257 260 264 270 277 283 288 293 297 302 309 316 317 317 317 313 311 318 325 324 326 330 331 333 336 339 343 344 345 350 352 349 349 351 349
213 216 217 218 219 221 223 227 231 231 230 233 237 238 240 240 239 239 239 237 234 233 233 238 243 242 241 242 245 246 249 252 253 250 249 252 254 257 259 258 259 262 267 271 276 283 291 296 301 309 317 318 316 315 315 315 318 321 321 322 325 329 333 337 337 339 341 342 347 352 349 346 348 344
215 217 218 221 224 227 228 229 230 230 230 233 236 238 238 237 236 237 238 236 237 237 237 238 241 241 239 241 246 249 250 250 247 244 245 249 254 259 261 259 258 262 266 270 275 281 287 291 296 303 314 318 315 312 312 311 313 314 313 315 320 326 333 335 332 333 337 339 344 351 350 345 345 341
216 219 221 224 229 232 233 232 230 230 233 235 235 234 232 230 229 229 227 230 239 244 242 239 241 241 240 242 246 248 246 243 242 242 245 251 258 260 260 259 260 261 264 270 277 281 286 292 296 300 310 316 311 306 303 302 305 306 304 307 317 327 333 335 332 332 334 336 342 349 348 346 349 346
218 222 227 231 234 236 235 232 231 233 235 234 230 228 227 228 231 233 233 240 249 252 247 245 246 246 244 243 242 242 241 238 237 241 245 251 257 259 258 257 258 260 264 270 274 279 287 295 295 295 303 309 306 301 298 296 297 297 296 301 315 328 334 336 334 334 333 335 341 347 346 347 354 351
221 228 233 237 236 234 231 229 228 229 229 228 228 231 236 239 241 243 244 247 252 254 252 251 251 251 248 245 240 236 237 236 236 242 248 253 257 262 262 259 254 254 260 266 270 276 287 295 297 301 308 311 306 301 298 296 297 300 303 310 317 322 329 334 334 333 332 334 342 347 346 349 356 351
226 230 235 235 231 223 221 222 223 223 226 230 234 241 248 250 250 251 251 251 253 255 255 254 253 252 252 249 245 243 242 240 239 241 244 247 254 261 265 262 255 249 251 259 267 275 285 295 302 309 315 315 307 299 296 296 299 304 311 316 314 314 321 329 331 330 331 335 341 346 347 352 357 352
223 221 222 223 221 218 219 223 226 228 232 233 234 240 248 253 255 257 258 259 260 259 258 257 255 253 252 251 249 247 244 242 243 244 243 246 252 256 259 260 254 246 245 254 266 277 286 294 300 305 308 306 300 294 292 295 298 301 308 313 309 309 317 324 328 330 332 334 338 341 344 351 356 354
220 217 216 218 219 219 220 225 229 231 231 233 238 246 254 259 262 262 262 261 260 260 260 257 252 250 252 252 249 243 239 238 241 243 244 249 254 256 254 251 246 242 245 255 266 275 285 292 296 299 300 298 294 290 289 292 294 298 304 308 308 308 310 314 321 328 329 329 333 335 336 343 353 356
220 218 217 219 220 221 223 228 232 234 238 245 254 261 265 266 266 264 264 262 258 257 258 255 249 245 248 249 244 238 237 238 240 242 244 246 249 252 250 245 240 240 247 258 267 274 283 290 293 293 291 288 285 285 287 289 292 298 302 303 305 309 305 301 309 319 319 319 324 325 325 336 351 357